AirNav   Everest Fuels
 
 445 users online  

MO28 Blue Springs Heliport
Blue Springs, Missouri, USA

GOING TO BLUE SPRINGS?


FAA INFORMATION EFFECTIVE 16 JULY 2020

Location

FAA Identifier: MO28
Lat/Long: 39-01-36.8700N 094-15-52.0600W
39-01.614500N 094-15.867667W
39.0269083,-94.2644611
(estimated)
Elevation: 287 ft. / 87 m (estimated)
Variation: 03E (2000)
Time zone: UTC -5 (UTC -6 during Standard Time)
Zip code: 64014

Heliport Operations

Heliport use: Private use, MEDICAL USE.
Activation date: 12/2000
Control tower: no
ARTCC: KANSAS CITY CENTER
FSS: COLUMBIA FLIGHT SERVICE STATION
Attendance: CONTINUOUS
Wind indicator: yes
Segmented circle: no

Heliport Communications

WX ASOS at LXT (6 nm SW): 124.175 (816-347-9807)
WX ASOS at MKC (16 nm W): PHONE 816-329-2843
WX AWOS-3 at GPH (18 nm N): 120.275 (816-407-3399)

Nearby radio navigation aids

VOR radial/distance  VOR name  Freq  Var
ANXr230/7.5NAPOLEON VORTAC114.0007E
MCIr120/26.9KANSAS CITY VORTAC113.2505E

Heliport Services

Runway Information

Helipad H1

Dimensions: 20 x 20 ft. / 6 x 6 m
Surface: concrete
Latitude: 39-01.614500N
Longitude: 094-15.867667W
Elevation: 287.0 ft.
Traffic pattern: leftleft

Heliport Ownership and Management from official FAA records

Ownership: Privately-owned
Owner: ST. MARY'S HOSPITAL
201 WEST R.D. MIZE RD
BLUE SPRINGS, MO 64014
Phone (816) 655-5542
Manager: JAMES MILAM
201 WEST R.D. MIZE RD
BLUE SPRINGS, MO 64014
Phone 816-655-5541

Additional Remarks

A52-H1 RY H1 60 FT TREES & PLINE 72 FT NORTH; 15 FT BLDG 73 FT SOUTH; 60 FT BLDG 223 FT SOUTH; & 30 FT LGT POLES 59 FT SOUTHEAST OF HELIPAD.
OWNER DESIRES HELIPORT NOT BE CHARTED.
FOR CD CTC KANSAS CITY APCH AT 816-329-2710.

Instrument Procedures

There are no published instrument procedures at MO28.

Some nearby airports with instrument procedures:

3GV - East Kansas City Airport (2 nm E)
KLXT - Lee's Summit Municipal Airport (6 nm SW)
KMKC - Charles B Wheeler Downtown Airport (16 nm W)
KGPH - Midwest National Air Center Airport (18 nm N)
3EX - Excelsior Springs Memorial Airport (19 nm N)
 
Loc | Ops | Rwys | IFR | FBO | Links
Com | Nav | Svcs | Stats | Notes
Area around MO28 (Blue Springs Heliport)
 
Road maps at: MapQuest Bing Google
 
Aerial photo
No photo
 
Sectional chart

 
Airport distance calculator
Flying to Blue Springs Heliport? Find the distance to fly.

From to MO28

Sunrise and sunset
Times for 08-Aug-2020
 Local
(UTC-5)
 Zulu
(UTC)
Morning civil twilight05:5710:57
Sunrise06:2611:26
Sunset20:1901:19
Evening civil twilight20:4801:48

Current date and time
Zulu (UTC)  08-Aug-2020 10:36:37
Local (UTC-5)  08-Aug-2020 05:36:37
 
METAR
KLXT 
6nm SW 
081020Z AUTO 03009KT 4SM +TSRA FEW028 BKN085 OVC110 23/21 A3005 RMK AO2 LTG DSNT ALQDS RAB03 TSE0954B14 P0019 T02330206
KMKC 
17nm W 
081005Z 07008KT 10SM VCTS BKN090 24/22 A3000 RMK AO2 LTG DSNT NE-S T02390217
KGPH 
18nm N 
081015Z AUTO 08014G23KT 10SM -VCTSRA SCT006 SCT010 BKN038 20/18 A3005 RMK AO2 LTG DSNT NE THRU S
TAF
KMKC 
17nm W 
080520Z 0806/0906 17010KT P6SM SCT080 BKN250 FM080800 18010KT P6SM VCTS BKN040CB OVC100 WS020/22035KT FM081200 19015G20KT P6SM BKN250 FM090000 16010KT P6SM FEW250
NOTAMs
Click for the latest NOTAMs
NOTAMs are issued by the DoD/FAA and will open in a separate window not controlled by AirNav.

 

 
 

Would you like to see your business listed on this page?

 If your business provides an interesting product or service to pilots, flight crews, aircraft, or users of the Blue Springs Heliport, you should consider listing it here.  To start the listing process, click on the button below
 
Add a business
 

Other Pages about Blue Springs Heliport

Update a link
 
Copyright © AirNav, LLC. All rights reserved. Privacy Policy  Contact